Powrót do katalogu

NOAA 16 DEB

AktywnySSO
NORAD 41152·DEBRIS·🇺🇸 United States

Wystrzelony Sep 21, 2000 z Vandenberg Space Force Base

Loading…

Następne Przeloty (najbliższe 24 godziny)

TLE

ŚwieżeSource: Space-Track

Epoka: Sep 14, 2026, 14:07 UTC

1 41152U 00055CK  26257.58829265  .00003333  00000-0  11112-2 0  9990
2 41152  98.8441  24.8446 0009165 266.3961  93.6177 14.38231906559516

Śledź NOAA 16 DEB w czasie rzeczywistym z AllMySat

Download on the App Store